Regional Weather Roundup
Issued by NWS

Home | Current Version | Previous Version | Graphics & Text | Print | Product List | Glossary On
Versions: 1 2 3 4 5 6 7 8 9 10 11 12 13 14 15 16 17 18 19 20 21 22 23 24 25 26 27 28 29 30 31 32 33 34 35 36 37 38 39 40 41 42 43 44 45 46 47 48 49 50
000
ASUS43 KLMK 250302
RWRKY
KENTUCKY REGIONAL WEATHER ROUNDUP
NATIONAL WEATHER SERVICE LOUISVILLE KY
1100 PM EDT FRI OCT 24 2014

NOTE "FAIR" INDICATES FEW OR NO CLOUDS BELOW 12,000 FEET
WITH NO SIGNIFICANT WEATHER AND/OR OBSTRUCTIONS TO VISIBILITY.

KYZ001>023-026-027-061>063-070>075-250400-
WESTERN AND SOUTH CENTRAL KENTUCKY

CITY           SKY/WX    TMP DP  RH WIND       PRES   REMARKS
PADUCAH        CLEAR     55  51  86 SW3       30.06R
HENDERSON      CLEAR    N/A N/A N/A CALM      30.06S
OWENSBORO      PTCLDY    54  49  83 CALM      30.07R
HOPKINSVILLE   CLEAR     53  53 100 SW1       30.08S
BOWLING GREEN  CLEAR     50  45  83 CALM      30.09R
GLASGOW        NOT AVBL
$$

KYZ024-025-028>034-038-045-046-053-250400-
NORTH CENTRAL KENTUCKY

CITY           SKY/WX    TMP DP  RH WIND       PRES   REMARKS
LOUISVILLE/SDF PTCLDY    54  47  77 SE12      30.05F
LOUISVILLE/LOU CLEAR     50  48  93 CALM      30.06S
FORT KNOX      CLEAR     49  46  92 CALM      30.05F
$$

KYZ035>037-039>044-047>052-055>060-089>105-250400-
NORTHEAST KENTUCKY

CITY           SKY/WX    TMP DP  RH WIND       PRES   REMARKS
LEXINGTON      CLEAR     50  42  74 S3        30.07S
COVINGTON      PTCLDY    49  41  74 CALM      30.04S
FRANKFORT      CLEAR     46  41  82 CALM      30.06S
$$

KYZ054-064>069-076>088-106>120-250400-
SOUTHEAST KENTUCKY

CITY           SKY/WX    TMP DP  RH WIND       PRES   REMARKS
JACKSON        CLEAR     53  38  56 CALM      30.08S
LONDON         CLEAR     47  42  83 CALM      30.09S
SOMERSET       CLEAR     45  45 100 CALM      30.10S
MIDDLESBORO    CLEAR     43  42  95 CALM      30.11R
MONTICELLO     CLEAR     41  40  96 CALM      30.11S FOG
$$




USA.gov is the U.S. government's official web portal to all federal, state and local government web resources and services.